Theta_e
350 355 357 359 372 369 369 367 360 360 359 353 351 353 358 356 361 368 348 348 347 348 351 353 353 351 353 353 353 350 351 352 353 347 352 352 352 348 352 354 353 352 352 352 352 351 352 349 348
357 358 360 369 370 371 371 359 364 359 356 353 352 353 356 358 350 350 349 349 348 348 350 353 350 346 351 347 351 350 349 348 350 347 350 352 353 351 351 353 353 353 351 351 351 350 349 345 344
359 357 369 370 362 363 368 362 359 356 354 353 357 354 355 352 350 348 349 349 350 350 352 352 353 352 351 352 349 351 350 351 350 350 352 351 351 352 351 351 350 351 352 352 351 351 345 344 344
358 364 365 372 356 358 362 358 356 357 355 355 355 358 353 349 348 350 349 347 348 348 349 350 349 353 351 340 352 340 348 346 347 350 349 346 351 348 353 352 353 352 351 352 351 351 347 344 342
359 364 368 355 354 353 355 355 356 358 357 355 354 359 355 349 349 350 349 347 349 349 350 350 352 350 343 351 352 343 351 352 353 350 351 352 347 352 348 348 349 346 344 342 345 342 347 347 344
361 358 364 355 352 352 352 354 354 356 355 357 356 357 356 348 349 349 348 347 344 348 352 350 348 343 336 349 351 344 352 354 353 353 352 349 343 340 338 337 337 337 337 339 340 340 346 345 338
359 355 353 356 352 353 354 351 354 355 355 356 352 358 352 349 348 349 348 352 348 352 349 349 343 340 346 353 353 353 352 346 344 344 339 334 334 335 339 345 346 347 347 345 344 343 345 346 344
350 352 351 350 356 355 351 354 355 355 357 352 354 361 357 349 347 347 349 348 351 352 352 349 346 350 350 354 349 346 339 336 338 342 344 350 350 352 351 352 348 345 346 347 348 347 345 343 341
348 354 349 348 357 353 350 353 352 354 355 354 353 353 352 345 346 345 349 346 348 351 350 351 350 348 351 348 342 336 340 349 352 352 350 353 353 353 353 350 345 346 347 346 345 344 343 344 346
348 348 345 344 347 349 349 352 354 356 357 357 355 351 348 344 343 345 350 346 349 348 347 350 343 342 346 342 349 349 351 354 354 355 356 351 351 351 351 351 350 350 345 352 347 347 347 351 351
344 345 345 346 347 348 349 350 351 352 358 356 357 353 349 346 344 346 345 345 347 347 347 346 345 341 339 343 347 350 350 351 352 355 355 351 353 351 351 348 351 348 349 352 352 352 349 350 346
345 340 343 344 345 346 350 350 351 353 354 353 353 351 349 346 347 342 345 346 346 346 347 346 346 345 343 344 346 348 350 350 350 352 354 354 350 348 351 348 349 350 348 350 353 352 351 348 350
342 342 343 345 347 346 347 348 350 354 354 352 353 350 349 345 344 344 345 347 345 347 347 344 344 345 349 352 349 353 350 350 350 352 353 352 350 352 348 352 349 351 349 348 350 351 350 348 348
341 344 345 347 349 350 349 350 352 356 352 354 353 351 349 346 344 347 344 347 346 347 344 342 343 350 352 355 353 352 352 349 349 349 352 354 354 354 352 347 346 345 347 349 349 353 349 348 344
345 344 346 347 351 353 351 354 354 354 353 355 354 352 349 349 345 347 346 347 346 347 343 342 345 351 353 354 353 353 351 349 349 349 352 353 353 353 354 350 349 349 350 347 346 346 345 342 340
347 346 347 347 350 351 352 362 354 352 354 356 354 353 350 350 350 350 348 346 346 347 343 343 348 351 353 353 353 351 350 349 349 348 351 352 353 354 354 350 349 356 353 350 350 350 350 350 350
346 348 359 360 346 356 353 362 355 352 355 358 356 354 352 352 350 349 349 347 346 347 344 346 351 351 352 352 351 353 355 351 349 348 348 352 353 353 354 351 353 355 351 352 352 351 353 351 350
348 344 346 342 350 348 352 354 357 354 354 356 356 354 353 353 350 349 349 348 343 348 347 348 351 352 353 352 353 352 352 349 348 348 349 352 352 352 355 355 356 357 354 354 355 355 354 352 349
347 347 345 337 343 346 348 349 360 357 354 355 356 356 354 353 350 349 349 348 346 347 348 348 351 354 354 353 352 351 350 348 348 347 347 351 351 352 351 352 354 351 354 357 356 354 354 351 351
348 346 345 344 342 343 343 347 348 359 356 354 353 355 354 353 351 350 350 349 347 347 348 346 350 353 355 352 351 350 349 348 347 347 348 350 351 351 349 355 354 357 353 357 356 355 353 352 352
338 341 341 344 343 345 343 344 344 355 357 352 351 351 352 353 353 353 352 350 347 347 348 347 350 352 353 352 351 353 352 351 346 345 347 352 349 350 353 355 357 356 355 352 355 357 356 353 344
338 338 338 338 341 346 345 350 345 351 359 355 350 350 351 351 352 353 352 351 348 348 347 348 350 351 352 353 351 351 349 346 345 346 347 347 350 351 352 354 355 356 354 354 355 357 356 351 343
336 337 338 338 341 343 348 346 341 352 359 358 350 349 348 349 351 353 352 351 351 349 347 346 350 350 348 350 351 349 351 348 347 347 351 351 352 354 352 353 355 355 355 354 358 356 353 349 343
335 337 338 338 341 343 341 342 343 352 354 357 353 349 347 346 349 351 350 350 350 350 349 346 348 351 349 347 349 350 348 348 349 348 349 349 349 350 354 356 356 356 356 359 357 354 352 349 343
334 337 341 342 343 343 342 342 342 349 345 350 354 352 348 345 346 350 352 351 350 350 350 348 346 350 349 349 347 350 350 352 353 354 351 350 350 349 355 358 357 357 359 356 355 351 349 344 339
333 337 339 345 344 343 346 345 342 347 343 345 351 352 351 346 344 349 351 351 350 349 349 347 349 353 354 354 353 350 350 350 350 352 350 350 350 350 355 357 356 357 356 355 353 349 345 342 336
332 339 337 339 341 349 356 348 339 342 340 341 342 353 352 348 343 347 349 351 351 350 349 350 351 353 355 355 354 352 350 351 349 350 353 352 353 352 354 357 357 356 354 353 349 346 343 337 332
330 336 337 338 345 356 349 351 339 342 341 345 344 352 352 350 343 345 348 349 350 350 350 351 351 353 355 354 353 353 352 353 353 354 353 353 353 355 357 357 356 354 353 350 347 344 340 334 329
329 333 336 337 337 345 351 355 340 343 342 342 346 352 352 350 344 344 346 347 348 349 350 351 351 352 354 355 354 353 354 354 355 354 355 355 356 357 358 357 356 353 351 348 345 342 335 330 330
329 332 335 339 343 339 343 346 340 341 341 343 348 353 351 349 345 344 345 346 347 348 349 350 350 352 354 355 356 355 354 354 354 356 355 356 357 358 358 357 356 352 350 345 344 339 331 329 329
Wind_Speed
12 12 14 7 2 4 10 8 15 16 11 7 2 3 13 11 7 8 21 18 17 16 12 10 10 11 11 12 11 11 9 9 9 8 11 10 10 12 11 12 12 12 11 10 10 10 10 10 10
13 9 9 5 3 1 7 15 12 9 14 12 11 11 4 10 4 18 18 17 13 14 14 11 10 11 10 11 11 11 10 10 10 11 11 11 12 12 11 11 11 10 10 9 9 7 7 8 8
10 11 8 4 1 6 9 18 12 18 20 11 6 6 7 4 12 12 21 17 15 14 14 10 11 10 12 12 10 10 11 11 11 10 11 10 11 11 9 10 9 8 8 7 6 5 5 5 5
10 8 5 1 14 19 11 15 17 17 12 6 12 12 8 11 4 11 18 18 15 14 13 10 10 11 11 12 10 10 11 10 10 10 10 11 9 9 7 8 7 6 5 4 4 3 3 3 4
17 1 3 6 11 14 12 18 11 8 14 9 11 8 7 7 10 18 15 18 16 14 13 11 11 12 11 12 11 10 12 11 10 10 10 8 7 6 6 5 4 3 3 2 2 2 2 3 3
10 4 1 3 13 11 9 9 6 11 15 18 12 12 6 10 19 18 18 15 15 16 14 12 9 9 11 11 10 10 10 10 10 8 7 5 4 3 3 3 3 2 3 3 3 3 4 5 5
16 3 2 14 8 13 11 8 9 7 9 9 22 10 8 15 17 16 16 6 13 16 14 13 11 10 12 10 9 9 9 8 7 6 5 5 4 5 5 5 5 4 4 4 4 4 4 4 5
9 9 7 7 10 5 12 11 17 5 9 12 11 8 12 19 22 23 13 11 9 16 12 14 11 11 10 8 8 7 7 8 8 7 6 3 2 3 3 4 5 6 5 5 4 4 5 6 4
15 8 1 3 19 6 11 13 7 9 11 6 4 7 25 30 24 21 17 18 11 9 15 12 11 9 8 9 7 7 9 8 7 3 6 5 4 2 2 3 5 6 7 5 4 4 5 5 3
12 7 8 5 7 10 7 10 10 11 10 8 10 22 32 32 26 21 15 19 14 15 13 14 11 11 10 10 7 7 3 3 4 5 5 6 4 3 4 4 7 5 7 4 4 5 4 8 13
6 6 4 7 12 6 13 9 7 12 11 12 17 23 26 26 24 21 21 20 17 15 12 11 11 11 10 10 9 8 4 6 6 6 6 6 5 8 8 9 5 6 7 2 5 6 5 8 8
12 6 8 13 7 6 7 11 7 7 14 12 17 22 22 23 19 24 20 18 17 15 13 12 11 10 8 9 7 5 6 5 7 7 4 7 5 9 10 11 10 8 8 6 6 7 6 8 4
6 7 10 11 3 14 6 7 8 11 7 13 16 22 23 21 21 20 16 16 17 14 13 13 12 10 10 6 5 4 5 4 4 7 9 9 9 5 7 5 8 10 10 9 5 6 6 7 3
1 6 8 6 9 6 5 9 10 10 9 15 16 21 22 22 23 19 19 13 14 15 14 14 13 12 10 5 7 6 3 5 4 10 9 7 5 6 8 9 9 11 11 9 9 4 6 6 7
5 10 8 9 9 11 8 9 8 11 12 15 16 19 20 20 27 24 23 21 17 17 15 15 15 13 10 8 9 4 7 5 5 6 6 7 8 5 11 9 11 7 7 7 6 7 5 7 7
14 16 15 12 12 8 9 9 14 13 15 15 15 18 19 17 22 20 23 23 18 16 16 16 16 13 11 9 8 7 5 4 3 4 6 6 7 5 9 9 9 9 13 10 8 10 10 9 11
14 15 22 20 11 11 7 15 15 13 14 17 16 18 19 16 18 20 21 21 20 18 18 17 13 14 11 9 9 7 5 3 3 1 5 5 6 7 8 7 7 8 7 10 11 10 10 10 11
17 13 15 5 13 6 9 8 16 15 15 16 18 18 20 20 19 20 24 23 23 19 19 18 15 13 12 10 8 9 7 5 4 2 4 3 5 6 9 5 4 7 9 11 10 10 8 12 11
12 18 15 11 11 4 10 6 19 18 16 18 18 20 19 18 22 23 24 23 23 21 21 21 18 15 13 11 11 9 10 7 4 2 1 0 3 5 7 8 6 7 6 6 9 12 15 12 12
26 26 8 6 7 5 14 12 14 21 20 21 20 21 23 22 18 20 25 25 25 24 23 22 20 16 15 12 10 7 7 5 2 1 1 1 1 4 6 6 7 8 8 3 9 9 11 7 5
19 16 11 12 4 11 14 14 15 22 20 19 21 22 22 23 23 20 23 28 27 26 26 24 22 19 16 13 11 7 5 4 5 6 6 5 1 4 4 4 6 6 8 10 8 9 11 12 9
22 17 14 10 9 12 5 13 16 18 20 21 20 22 23 24 24 24 27 29 30 28 26 25 24 21 18 16 13 12 10 9 6 4 3 2 2 3 2 4 4 5 6 6 9 10 8 8 13
21 20 16 13 14 16 19 8 7 19 19 21 21 22 22 23 23 26 27 32 31 29 28 27 25 23 20 19 16 13 12 9 7 7 4 4 5 3 3 4 5 4 6 6 4 6 7 11 10
22 20 11 12 14 14 18 13 13 19 19 21 22 22 22 23 23 23 30 31 30 30 29 28 26 25 23 20 18 16 12 12 8 8 7 6 4 4 4 3 4 4 4 3 2 4 5 7 8
26 21 11 13 13 14 10 15 4 24 7 18 23 24 23 22 23 23 23 27 30 31 30 29 28 27 25 24 22 19 18 13 11 9 9 7 6 6 2 1 4 5 2 2 1 2 4 6 7
23 25 13 19 16 14 14 9 7 33 7 13 19 23 23 23 22 23 25 29 31 32 31 30 29 26 26 25 24 22 19 17 16 14 12 10 9 7 2 4 5 3 2 2 1 1 3 4 4
27 25 23 24 9 10 3 19 14 10 13 5 13 24 25 23 23 23 24 31 32 32 32 31 28 27 25 25 24 23 22 20 17 15 13 12 11 10 9 5 5 3 5 4 3 1 2 3 4
30 21 22 18 18 3 11 15 12 16 10 10 10 23 24 23 22 22 22 29 31 32 32 30 29 27 26 24 23 23 22 21 19 15 15 13 11 9 8 7 7 6 6 5 3 2 1 1 2
22 24 21 22 19 7 12 20 17 13 9 2 12 20 23 23 22 21 21 29 30 31 31 31 29 28 26 25 24 23 22 21 20 19 17 16 13 11 10 9 8 8 7 6 2 0 2 1 1
28 28 26 17 23 15 7 12 20 13 9 6 14 19 21 21 21 20 20 27 29 29 30 31 30 29 27 25 24 24 22 22 21 21 18 16 15 13 11 11 10 9 9 7 5 3 1 2 0
Wind_Direction
161 178 205 230 232 202 102 88 116 138 111 105 181 121 92 37 8 90 139 124 133 125 123 116 115 116 110 103 102 104 101 98 97 95 97 97 99 96 84 89 88 88 88 89 91 95 98 94 96
183 196 236 257 114 1 82 127 113 116 120 139 97 99 68 72 100 128 130 121 138 127 123 120 114 111 106 109 98 100 101 105 103 94 97 93 90 91 92 90 86 82 83 84 86 88 85 82 78
264 230 263 106 128 20 89 121 142 128 137 129 110 106 38 119 96 120 122 134 138 132 120 121 111 109 106 100 103 108 94 102 98 103 99 93 89 89 93 89 89 85 81 77 78 76 70 71 67
215 221 241 14 68 83 119 111 136 126 118 102 109 86 91 81 58 123 136 145 132 115 118 118 117 115 100 108 104 105 102 97 99 100 104 105 102 96 92 91 92 94 89 79 83 63 54 45 31
243 198 292 107 98 80 100 114 130 112 128 140 106 102 94 93 119 133 154 138 141 142 121 120 116 112 111 118 104 107 107 101 100 101 101 98 97 103 107 105 96 92 88 75 50 41 353 344 337
277 24 263 181 94 103 98 111 96 125 139 128 111 118 106 141 152 156 142 145 140 126 129 120 118 118 122 113 110 109 100 103 106 107 110 109 110 110 96 82 61 40 20 1 344 330 324 321 323
259 329 286 146 101 123 110 129 109 118 144 134 151 110 131 166 166 154 151 121 129 131 143 132 122 125 126 120 112 106 113 110 114 108 108 107 93 72 67 72 38 24 18 7 351 334 324 327 320
288 302 353 90 116 284 116 113 127 62 117 124 140 141 168 153 174 149 155 140 114 141 137 140 133 141 134 118 129 119 123 116 108 99 95 109 91 35 30 55 2 341 344 333 312 313 313 316 321
265 302 339 1 91 263 122 113 71 121 126 146 103 178 146 159 159 157 171 148 179 173 144 136 144 145 133 128 124 118 114 95 84 65 8 4 262 291 53 43 9 354 348 348 327 321 323 309 198
255 298 44 3 81 102 121 110 122 144 126 135 119 108 142 159 157 156 166 149 188 155 160 158 139 144 153 134 133 138 147 106 83 55 5 23 34 43 33 30 24 23 5 333 22 15 318 311 269
244 23 38 87 45 110 117 115 148 133 173 150 135 144 150 148 169 155 183 163 162 160 163 141 143 156 153 130 148 142 130 138 100 70 36 31 25 39 33 5 6 2 0 56 340 325 10 23 1
270 84 69 75 104 107 143 109 146 111 71 138 140 154 157 157 180 170 174 169 158 164 151 158 146 151 128 146 165 140 138 119 100 74 17 2 47 35 20 23 5 10 15 19 6 4 10 356 16
221 86 102 106 89 74 146 124 96 99 119 130 146 159 164 169 168 172 162 177 164 161 150 148 150 149 147 171 140 68 141 86 98 114 58 40 38 14 36 18 43 26 23 35 29 0 19 330 333
291 153 109 152 117 154 129 121 184 135 158 139 163 169 173 171 165 177 184 169 177 167 163 153 155 155 155 138 151 157 79 133 80 69 52 45 23 2 8 27 34 38 34 32 24 2 1 316 356
124 179 183 174 156 157 241 159 121 143 156 149 171 174 180 169 175 174 184 172 185 168 167 158 163 160 155 146 156 180 162 133 96 79 72 44 34 11 341 45 35 19 40 39 27 2 357 4 350
252 226 199 157 163 132 213 237 127 145 153 161 176 176 178 173 172 187 171 180 170 185 168 168 172 162 163 157 165 179 150 129 109 80 101 51 39 12 334 41 35 3 359 12 19 6 355 22 344
210 237 116 254 170 127 241 202 131 155 163 163 178 184 176 192 176 187 170 183 175 186 172 177 176 168 166 166 173 176 156 184 114 102 82 55 44 21 339 41 32 4 22 30 10 360 5 343 348
248 214 226 190 165 189 209 159 147 167 170 176 179 196 187 183 184 186 182 182 184 178 183 184 180 174 170 168 181 189 180 189 182 138 67 41 33 17 345 65 34 346 4 17 4 345 339 317 7
14 279 286 179 151 200 242 258 158 171 185 180 187 189 197 199 183 187 196 187 183 186 183 187 186 181 180 188 194 194 201 194 195 191 106 13 25 15 356 4 16 5 357 5 356 347 8 349 3
161 254 272 276 133 225 266 221 183 171 194 185 188 191 196 196 189 197 192 193 192 188 189 189 191 186 193 196 207 209 213 189 218 172 189 205 340 352 348 351 349 10 339 14 3 357 355 3 46
241 250 233 235 157 230 255 262 244 168 189 200 187 186 197 200 187 191 195 196 195 192 193 191 194 193 197 204 192 193 202 238 218 198 205 165 282 341 349 355 355 344 321 6 346 7 1 349 357
241 222 264 286 266 268 184 266 237 174 189 197 192 189 191 198 188 190 195 196 197 198 195 195 196 198 200 201 198 200 213 223 184 183 160 201 261 326 336 344 336 337 331 348 355 5 360 1 352
238 245 223 236 256 255 209 238 250 169 188 195 199 193 194 193 196 189 194 193 200 198 197 198 196 201 205 202 212 204 221 218 219 218 160 235 249 230 281 314 315 320 330 348 357 10 1 355 349
229 241 230 240 247 252 248 256 242 183 184 195 192 194 194 189 195 197 190 192 198 200 198 196 195 201 205 206 208 216 217 226 239 207 236 247 257 251 210 298 305 309 318 343 6 1 11 4 1
227 225 220 228 231 245 272 211 202 341 148 178 183 191 189 188 190 191 186 191 194 198 197 197 193 200 208 210 212 211 215 217 227 234 236 261 270 265 175 266 277 290 327 293 86 24 13 4 11
220 226 220 218 231 232 170 238 243 197 141 152 175 181 184 189 187 188 186 189 191 195 195 197 193 200 207 210 211 211 212 218 225 229 238 243 254 264 183 277 267 267 252 169 190 335 358 4 4
216 225 228 248 273 267 64 264 211 167 199 175 187 169 181 186 184 186 188 187 189 192 194 196 194 199 206 208 208 208 210 217 222 232 215 237 245 257 249 247 255 235 202 187 189 337 349 352 352
235 204 224 240 245 231 289 295 208 190 205 176 213 169 175 180 182 182 187 185 190 191 192 196 197 199 203 205 205 206 208 212 221 223 227 236 245 245 256 251 243 213 190 189 216 253 118 351 356
216 224 217 235 238 190 225 243 175 167 185 76 187 166 170 178 181 179 185 183 190 189 192 195 197 197 201 203 202 203 206 210 214 222 228 233 236 236 236 238 212 202 195 192 211 322 143 135 72
215 217 226 224 236 251 270 289 227 146 141 167 175 158 168 179 181 176 182 179 186 190 192 193 196 197 198 199 202 201 205 208 214 219 224 227 226 224 225 219 205 201 200 195 207 228 204 208 224